Date String (YYYY-MM-DD hh:mm:ss) UTC,Instrument flags,Ambient pressure (hPa),Sample flow (lpm),Bypass flow (lpm),Sample temperature (°C),Ambient temperature (°C),ASC tube jacket temperature (°C),LED temperature (°C),Box temperature (°C),Sample RH (%),Span deviation,Mass concentration (μg/m³),Mass concentration (μg/m³),Mass concentration (μg/m³)
DateTimeUTC,F1_M11,P_M11,Q1_M11,Q2_M11,T1_M11,T2_M11,T3_M11,T4_M11,T5_M11,U1_M11,ZSPAN_M11,X0_M11,X2_M11,X1_M11
2023-04-11 17:00:00,,0832.0,5.00,0.00,27.3,26.1,00.0,35.5,29.0,13.5,0000.0,0010.04,0003.74,0001.95
2023-04-11 17:01:00,,0832.0,5.00,0.00,27.3,26.1,00.0,35.5,29.0,13.5,0000.0,0009.82,0003.70,0001.94
2023-04-11 17:02:00,,0832.0,5.01,0.00,27.3,26.1,00.0,35.5,29.1,13.8,0000.0,0010.07,0003.70,0001.92
2023-04-11 17:03:00,,0832.0,5.00,0.00,27.4,26.1,00.0,35.6,29.1,13.5,0000.0,0009.40,0003.65,0001.93
2023-04-11 17:04:00,,0832.0,5.00,0.00,27.4,26.2,00.0,35.6,29.1,13.2,0000.0,0009.76,0003.67,0001.91
2023-04-11 17:05:00,,0832.0,5.00,0.00,27.4,26.2,00.0,35.6,29.1,12.9,0000.0,0010.35,0003.66,0001.91
2023-04-11 17:06:00,,0832.0,5.00,0.00,27.4,26.2,00.0,35.6,29.1,12.8,0000.0,0010.62,0003.63,0001.91
2023-04-11 17:07:00,,0831.9,5.00,0.00,27.4,26.2,00.0,35.6,29.1,12.8,0000.0,0010.79,0003.67,0001.92
2023-04-11 17:08:00,,0832.0,5.00,0.00,27.5,26.2,00.0,35.6,29.1,13.7,0000.0,0011.19,0003.69,0001.92
2023-04-11 17:09:00,,0832.0,5.00,0.00,27.5,26.2,00.0,35.7,29.2,14.0,0000.0,0011.16,0003.68,0001.93
2023-04-11 17:10:00,,0831.9,4.99,0.00,27.5,26.2,00.0,35.7,29.2,14.3,0000.0,0010.88,0003.66,0001.93
2023-04-11 17:11:00,,0831.9,5.00,0.00,27.5,26.3,00.0,35.7,29.2,14.2,0000.0,0010.93,0003.67,0001.95
2023-04-11 17:12:00,,0831.9,4.99,0.00,27.5,26.3,00.0,35.7,29.2,13.6,0000.0,0011.53,0003.73,0001.94
2023-04-11 17:13:00,,0831.9,5.00,0.00,27.5,26.3,00.0,35.7,29.3,13.9,0000.0,0011.53,0003.79,0001.96
2023-04-11 17:14:00,,0831.9,5.00,0.00,27.5,26.3,00.0,35.7,29.3,14.1,0000.0,0012.86,0003.79,0001.98
2023-04-11 17:15:00,,0831.9,5.00,0.00,27.6,26.4,00.0,35.8,29.3,14.2,0000.0,0013.76,0003.79,0002.01
2023-04-11 17:16:00,,0831.9,5.00,0.00,27.6,26.4,00.0,35.8,29.3,14.4,0000.0,0013.47,0003.82,0002.04
2023-04-11 17:17:00,,0831.9,5.00,0.00,27.6,26.4,00.0,35.8,29.3,14.5,0000.0,0013.96,0003.87,0002.06
2023-04-11 17:18:00,,0831.9,5.01,0.00,27.6,26.4,00.0,35.8,29.3,13.9,0000.0,0014.81,0003.82,0002.06
2023-04-11 17:19:00,,0831.9,5.00,0.00,27.6,26.4,00.0,35.8,29.4,13.7,0000.0,0014.91,0003.80,0002.06
2023-04-11 17:20:00,,0831.8,5.00,0.00,27.7,26.5,00.0,35.9,29.4,13.4,0000.0,0015.84,0003.86,0002.05
2023-04-11 17:21:00,,0831.8,5.01,0.00,27.7,26.5,00.0,35.9,29.4,13.3,0000.0,0015.62,0003.86,0002.04
2023-04-11 17:22:00,,0832.2,4.99,0.00,27.7,26.5,00.0,35.9,29.4,13.3,0000.0,0015.36,0003.88,0002.04
2023-04-11 17:23:00,,0831.9,5.00,0.00,27.7,26.5,00.0,35.9,29.5,13.2,0000.0,0015.14,0003.89,0002.05
2023-04-11 17:24:00,,0831.7,5.01,0.00,27.7,26.5,00.0,35.9,29.5,13.0,0000.0,0016.34,0003.88,0002.04
2023-04-11 17:25:00,,0831.7,5.01,0.00,27.8,26.6,00.0,35.9,29.5,13.7,0000.0,0015.71,0003.89,0002.04
2023-04-11 17:26:00,,0831.7,4.99,0.00,27.8,26.6,00.0,36.0,29.5,13.5,0000.0,0014.71,0003.89,0002.04
2023-04-11 17:27:00,,0831.7,5.01,0.00,27.8,26.6,00.0,36.0,29.5,13.4,0000.0,0015.17,0003.88,0002.04
2023-04-11 17:28:00,,0831.7,5.01,0.00,27.8,26.6,00.0,36.0,29.5,13.3,0000.0,0014.76,0003.89,0002.03
2023-04-11 17:29:00,,0831.7,5.00,0.00,27.8,26.6,00.0,36.0,29.5,12.8,0000.0,0013.82,0003.91,0002.04
2023-04-11 17:30:00,,0831.7,4.99,0.00,27.9,26.7,00.0,36.0,29.6,12.1,0000.0,0013.96,0003.88,0002.04
2023-04-11 17:31:00,,0831.7,5.00,0.00,27.9,26.7,00.0,36.1,29.6,11.7,0000.0,0013.22,0003.81,0002.03
2023-04-11 17:32:00,,0831.7,5.00,0.00,27.9,26.7,00.0,36.1,29.6,12.2,0000.0,0014.07,0003.83,0002.03
2023-04-11 17:33:00,,0831.6,5.00,0.00,27.9,26.8,00.0,36.1,29.6,12.1,0000.0,0014.57,0003.79,0002.01
2023-04-11 17:34:00,,0831.7,5.00,0.00,27.9,26.8,00.0,36.1,29.6,12.4,0000.0,0014.77,0003.75,0002.03
2023-04-11 17:35:00,,0831.6,5.00,0.00,28.0,26.8,00.0,36.1,29.6,12.0,0000.0,0014.20,0003.68,0002.04
2023-04-11 17:36:00,,0831.6,5.00,0.00,28.0,26.8,00.0,36.2,29.7,11.8,0000.0,0013.55,0003.67,0002.03
2023-04-11 17:37:00,,0831.6,5.00,0.00,28.0,26.8,00.0,36.2,29.7,11.8,0000.0,0013.35,0003.64,0002.03
2023-04-11 17:38:00,,0831.6,5.00,0.00,28.0,26.9,00.0,36.2,29.7,12.1,0000.0,0012.73,0003.64,0002.02
2023-04-11 17:39:00,,0831.6,5.00,0.00,28.1,26.9,00.0,36.2,29.7,12.4,0000.0,0012.69,0003.62,0002.04
2023-04-11 17:40:00,,0831.6,5.00,0.00,28.1,26.9,00.0,36.3,29.8,12.6,0000.0,0013.00,0003.60,0002.05
2023-04-11 17:41:00,,0831.6,5.00,0.00,28.1,26.9,00.0,36.3,29.8,12.3,0000.0,0012.73,0003.65,0002.09
2023-04-11 17:42:00,,0831.7,4.99,0.00,28.1,27.0,00.0,36.3,29.9,12.8,0000.0,0012.65,0003.74,0002.16
2023-04-11 17:43:00,,0831.7,5.00,0.00,28.1,27.0,00.0,36.3,29.9,12.7,0000.0,0012.49,0003.75,0002.20
2023-04-11 17:44:00,,0831.6,5.00,0.00,28.2,27.0,00.0,36.3,29.9,12.4,0000.0,0012.39,0003.80,0002.24
2023-04-11 17:45:00,,0831.6,5.01,0.00,28.2,27.0,00.0,36.4,29.9,11.9,0000.0,0013.32,0003.90,0002.30
2023-04-11 17:46:00,,0831.6,5.00,0.00,28.2,27.0,00.0,36.4,29.9,11.6,0000.0,0012.96,0003.99,0002.38
2023-04-11 17:47:00,,0831.6,5.00,0.00,28.2,27.1,00.0,36.4,29.9,12.2,0000.0,0013.31,0004.00,0002.47
2023-04-11 17:48:00,,0831.6,5.00,0.00,28.2,27.1,00.0,36.4,29.9,12.1,0000.0,0014.72,0004.14,0002.66
2023-04-11 17:49:00,,0831.6,5.00,0.00,28.3,27.1,00.0,36.4,30.0,11.5,0000.0,0015.44,0004.27,0002.84
2023-04-11 17:50:00,,0831.6,5.00,0.00,28.3,27.1,00.0,36.4,30.0,11.7,0000.0,0015.56,0004.43,0003.02
2023-04-11 17:51:00,,0831.5,5.00,0.00,28.3,27.1,00.0,36.5,30.0,11.7,0000.0,0016.04,0004.61,0003.17
2023-04-11 17:52:00,,0831.6,5.01,0.00,28.3,27.2,00.0,36.5,30.0,11.8,0000.0,0017.70,0004.75,0003.29
2023-04-11 17:53:00,,0831.5,5.00,0.00,28.3,27.2,00.0,36.5,30.1,12.0,0000.0,0017.90,0004.85,0003.39
2023-04-11 17:54:00,,0831.5,5.00,0.00,28.4,27.2,00.0,36.5,30.1,12.0,0000.0,0018.36,0005.04,0003.51
2023-04-11 17:55:00,,0831.5,5.01,0.00,28.4,27.2,00.0,36.6,30.1,11.5,0000.0,0018.46,0005.19,0003.64
2023-04-11 17:56:00,,0831.5,5.00,0.00,28.4,27.2,00.0,36.6,30.1,11.6,0000.0,0017.81,0005.28,0003.78
2023-04-11 17:57:00,,0831.5,5.01,0.00,28.4,27.3,00.0,36.6,30.1,11.6,0000.0,0017.86,0005.42,0003.94
2023-04-11 17:58:00,,0831.5,5.00,0.00,28.4,27.3,00.0,36.6,30.1,11.7,0000.0,0018.25,0005.62,0004.10
2023-04-11 17:59:00,,0831.5,5.00,0.00,28.5,27.3,00.0,36.6,30.1,11.0,0000.0,0016.84,0005.82,0004.25
